Location: *
(60.1759°S, 155.0663°W)
Time: 12:37:11
(UTC+00:00)

Cosmos 2322 Rocket - Pass Details

Date: 17 September 2019
Orbit: 834 x 849 km, 71.0° (Epoch: 15 October)

Event Time Altitude Azimuth Distance (km) Brightness Sun altitude
Rises 14:08:42 0° 224° (SW) 3,453 5.2 -17.1°
Reaches altitude 10° 14:11:13 10° 220° (SW) 2,515 4.5 -16.8°
Maximum altitude 14:16:57 59° 140° (SE) 993 2.8 -16.1°
Drops below altitude 10° 14:22:38 10° 59° (ENE) 2,500 5.1 -15.5°
Sets 14:25:08 0° 55° (NE) 3,430 5.8 -15.2°
